Freeland, MI

7:12 AM EST on February 11, 2016 (GMT -0500)
MBS International

Weather History for KMBS - December, 2014

Change the Weather History Date:

Thursday, December 11, 2014

  Actual Average Record
Temperature  
Mean Temperature 32 °F 29 °F  
Max Temperature 42 °F 35 °F 50 °F (2015)
Min Temperature 21 °F 23 °F 3 °F (2013)
Degree Days  
Heating Degree Days 33    
Month to date heating degree days 389  
Since 1 July heating degree days 1885  
Cooling Degree Days 0    
Month to date cooling degree days 0  
Year to date cooling degree days 539  
Moisture  
Dew Point 17 °F    
Average Humidity 55    
Maximum Humidity 69    
Minimum Humidity 40    
Precipitation  
Precipitation 0.00 in 0.07 in 0.37 in (2000)
Month to date precipitation 0.12 0.74  
Year to date precipitation 30.49 30.42  
Snow  
Snow 0.00 in - - ()
Month to date snowfall 0.4  
Since 1 July snowfall 3.3  
Snow Depth 0.00 in    
Sea Level Pressure  
Sea Level Pressure 30.12 in    
Wind  
Wind Speed 12 mph (WNW)    
Max Wind Speed 18 mph    
Max Gust Speed 24 mph    
Visibility 10 miles    
Events      
T = Trace of Precipitation, MM = Missing Value Source: NWS Daily Summary

Daily Weather History Graph

Daily Weather History Graph

Search for Another Location

Airport or City:

Trip Planner

Search our weather history database for the weather conditions in past years. The results will help you decide how hot, cold, wet, or windy it might be!

Date:

Astronomy

Dec. 11, 2014 Rise Set
Actual Time 7:59 AM EST 4:59 PM EST
Civil Twilight 7:26 AM EST 5:32 PM EST
Nautical Twilight 6:50 AM EST 6:08 PM EST
Astronomical Twilight 6:15 AM EST 6:43 PM EST
Moon 10:16 PM EST 11:16 AM EST
Length of Visible Light 10h 05m
Length of Day
9h 00m
Waning Gibbous, 75% of the Moon is Illuminated
Dec 11
Waning Gibbous
Dec 14
Last Quarter
Dec 21
New
Dec 28
First Quarter
Jan 4
Full

Hourly Weather History & Observations

Time (EST) Temp. Windchill Dew Point Humidity Pressure Visibility Wind Dir Wind Speed Gust Speed Precip Events Conditions
12:53 AM 21.0 °F 10.6 °F 10.9 °F 65% 30.14 in 10.0 mi WNW 9.2 mph - N/A   Clear
1:53 AM 21.0 °F 9.3 °F 12.0 °F 68% 30.13 in 10.0 mi NW 11.5 mph - N/A   Clear
2:53 AM 21.2 °F 9.5 °F 10.4 °F 63% 30.10 in 10.0 mi NW 11.5 mph - N/A   Clear
3:53 AM 21.9 °F 9.8 °F 10.0 °F 60% 30.13 in 10.0 mi NW 12.7 mph - N/A   Clear
4:53 AM 21.9 °F 9.8 °F 9.0 °F 58% 30.14 in 10.0 mi NW 12.7 mph - N/A   Clear
5:53 AM 21.9 °F 8.7 °F 8.1 °F 55% 30.13 in 10.0 mi NW 15.0 mph - N/A   Clear
6:53 AM 23.0 °F 10.6 °F 10.9 °F 60% 30.14 in 10.0 mi NW 13.8 mph - N/A   Clear
7:53 AM 24.1 °F 12.0 °F 15.1 °F 69% 30.15 in 10.0 mi NW 13.8 mph - N/A   Clear
8:53 AM 26.1 °F 14.5 °F 18.0 °F 71% 30.16 in 10.0 mi NW 13.8 mph - N/A   Clear
9:53 AM 28.0 °F 17.5 °F 19.0 °F 69% 30.16 in 10.0 mi NW 12.7 mph - N/A   Clear
10:53 AM 30.9 °F 22.2 °F 19.9 °F 64% 30.14 in 10.0 mi WNW 10.4 mph - N/A   Clear
11:53 AM 35.1 °F 25.9 °F 21.0 °F 57% 30.13 in 10.0 mi WNW 13.8 mph - N/A   Clear
12:53 PM 39.0 °F 31.0 °F 18.0 °F 43% 30.11 in 10.0 mi WNW 13.8 mph - N/A   Clear
1:53 PM 41.0 °F 33.5 °F 19.0 °F 41% 30.09 in 10.0 mi West 13.8 mph - N/A   Clear
2:53 PM 41.0 °F 32.5 °F 19.0 °F 41% 30.07 in 10.0 mi West 17.3 mph - N/A   Clear
3:53 PM 39.0 °F 30.3 °F 21.9 °F 50% 30.07 in 10.0 mi West 16.1 mph - N/A   Clear
4:53 PM 37.9 °F 30.0 °F 21.9 °F 53% 30.09 in 10.0 mi West 12.7 mph - N/A   Clear
5:53 PM 35.1 °F 26.9 °F 23.0 °F 61% 30.09 in 10.0 mi West 11.5 mph - N/A   Clear
6:53 PM 35.1 °F 26.9 °F 21.0 °F 57% 30.11 in 10.0 mi West 11.5 mph - N/A   Clear
7:53 PM 33.1 °F 24.9 °F 19.9 °F 59% 30.11 in 10.0 mi West 10.4 mph - N/A   Clear
8:53 PM 30.0 °F 21.1 °F 19.9 °F 66% 30.12 in 10.0 mi WSW 10.4 mph - N/A   Clear
9:53 PM 28.9 °F 19.8 °F 19.9 °F 69% 30.12 in 10.0 mi WSW 10.4 mph - N/A   Clear
10:53 PM 28.0 °F 20.0 °F 19.9 °F 72% 30.14 in 10.0 mi West 8.1 mph - N/A   Clear
11:53 PM 27.0 °F 19.5 °F 21.9 °F 81% 30.14 in 10.0 mi West 6.9 mph - N/A   Clear